User: anonymous   Login
Location: Alfortville
(48.8058°N, 2.4204°E)
Time: 09:29:44
(UTC+00:00)
Language:

Cosmos 1934 Rocket - Orbit

View from above orbital plane
View from above orbital plane
View from above satellite
View from above satellite

Ground track
Ground track

The orbit data is extracted from the following two-line orbital elements,

1 18986U 88023B   22018.14394713  .00000134  00000-0  11610-3 0  9998
2 18986  82.9526 236.6888 0041342 191.2014 168.8228 13.78656995701551
Epoch (UTC): 18 January 2022 03:27:17
Eccentricity: 0.0041342
inclination: 82.9526°
perigee height: 938 km
apogee height: 999 km
right ascension of ascending node: 236.6888°
argument of perigee: 191.2014°
revolutions per day: 13.78656995
mean anomaly at epoch: 168.8228°
orbit number at epoch: 70155

The dashed part of the orbit path shows where the satellite is in the earth's shadow,  

DLR